Time,TemperatureF,DewpointF,PressureIn,WindDirection,WindDirectionDegrees,WindSpeedMPH,WindSpeedGustMPH,Humidity,HourlyPrecipIn,Conditions,Clouds,dailyrainin,SoftwareType,DateUTC
2013-10-31 00:05:00,52.8,52.0,30.15,ESE,104,1.0,1.0,96,0.00,,,0.00,weatherlink.com 1.10,2013-10-31 04:05:00,
2013-10-31 00:20:00,52.6,52.0,30.15,ESE,104,0.0,0.0,96,0.00,,,0.00,weatherlink.com 1.10,2013-10-31 04:20:00,
2013-10-31 00:35:00,52.4,51.0,30.15,ESE,105,0.0,0.0,96,0.00,,,0.00,weatherlink.com 1.10,2013-10-31 04:35:00,
2013-10-31 00:50:00,51.6,51.0,30.14,ESE,105,0.0,0.0,96,0.00,,,0.00,weatherlink.com 1.10,2013-10-31 04:50:00,
2013-10-31 01:05:00,51.4,51.0,30.14,ESE,105,0.0,0.0,97,0.00,,,0.00,weatherlink.com 1.10,2013-10-31 05:05:00,
2013-10-31 01:20:00,50.9,50.0,30.13,ESE,104,0.0,0.0,97,0.00,,,0.00,weatherlink.com 1.10,2013-10-31 05:20:00,
2013-10-31 01:35:00,50.8,50.0,30.14,ESE,104,0.0,1.0,97,0.00,,,0.00,weatherlink.com 1.10,2013-10-31 05:35:00,
2013-10-31 01:50:00,50.6,50.0,30.13,ESE,105,0.0,0.0,97,0.00,,,0.00,weatherlink.com 1.10,2013-10-31 05:50:00,
2013-10-31 02:05:00,50.4,50.0,30.14,ESE,105,0.0,0.0,97,0.00,,,0.00,weatherlink.com 1.10,2013-10-31 06:05:00,
2013-10-31 02:20:00,50.4,50.0,30.13,ESE,105,0.0,0.0,98,0.00,,,0.00,weatherlink.com 1.10,2013-10-31 06:20:00,
2013-10-31 02:35:00,50.2,49.0,30.13,ESE,105,1.0,1.0,97,0.00,,,0.00,weatherlink.com 1.10,2013-10-31 06:35:00,
2013-10-31 02:50:00,50.3,50.0,30.13,ESE,105,0.0,0.0,98,0.00,,,0.00,weatherlink.com 1.10,2013-10-31 06:50:00,
2013-10-31 03:06:00,49.7,49.0,30.13,ESE,105,0.0,0.0,97,0.00,,,0.00,weatherlink.com 1.10,2013-10-31 07:06:00,
2013-10-31 03:20:00,49.1,48.0,30.12,ESE,105,0.0,0.0,97,0.00,,,0.00,weatherlink.com 1.10,2013-10-31 07:20:00,
2013-10-31 03:35:00,48.9,48.0,30.12,ESE,105,0.0,0.0,97,0.00,,,0.00,weatherlink.com 1.10,2013-10-31 07:35:00,
2013-10-31 03:50:00,49.2,49.0,30.11,North,360,1.0,1.0,98,0.00,,,0.00,weatherlink.com 1.10,2013-10-31 07:50:00,
2013-10-31 04:05:00,50.1,50.0,30.11,ENE,68,0.0,2.0,98,0.00,,,0.00,weatherlink.com 1.10,2013-10-31 08:05:00,
2013-10-31 04:20:00,50.7,50.0,30.10,ENE,68,0.0,1.0,98,0.00,,,0.00,weatherlink.com 1.10,2013-10-31 08:20:00,
2013-10-31 04:35:00,52.0,52.0,30.10,East,85,0.0,1.0,99,0.00,,,0.00,weatherlink.com 1.10,2013-10-31 08:35:00,
2013-10-31 04:50:00,51.5,51.0,30.09,East,85,0.0,0.0,98,0.00,,,0.00,weatherlink.com 1.10,2013-10-31 08:50:00,
2013-10-31 05:05:00,51.4,51.0,30.09,East,85,0.0,1.0,98,0.00,,,0.00,weatherlink.com 1.10,2013-10-31 09:05:00,
2013-10-31 05:20:00,51.4,51.0,30.08,East,85,0.0,1.0,98,0.00,,,0.00,weatherlink.com 1.10,2013-10-31 09:20:00,
2013-10-31 05:35:00,51.1,51.0,30.08,East,85,0.0,0.0,98,0.00,,,0.00,weatherlink.com 1.10,2013-10-31 09:35:00,
2013-10-31 05:50:00,51.1,51.0,30.09,East,85,0.0,0.0,98,0.00,,,0.00,weatherlink.com 1.10,2013-10-31 09:50:00,
2013-10-31 06:05:00,50.9,50.0,30.09,East,85,0.0,0.0,98,0.00,,,0.00,weatherlink.com 1.10,2013-10-31 10:05:00,
2013-10-31 06:20:00,51.0,51.0,30.08,East,85,0.0,1.0,98,0.00,,,0.00,weatherlink.com 1.10,2013-10-31 10:20:00,
2013-10-31 06:35:00,50.8,50.0,30.08,East,85,0.0,0.0,98,0.00,,,0.00,weatherlink.com 1.10,2013-10-31 10:35:00,
2013-10-31 06:50:00,50.3,50.0,30.08,East,85,0.0,0.0,98,0.00,,,0.00,weatherlink.com 1.10,2013-10-31 10:50:00,
2013-10-31 07:05:00,50.4,50.0,30.08,East,85,0.0,1.0,98,0.00,,,0.00,weatherlink.com 1.10,2013-10-31 11:05:00,
2013-10-31 07:20:00,51.0,51.0,30.08,East,85,0.0,0.0,99,0.00,,,0.00,weatherlink.com 1.10,2013-10-31 11:20:00,
2013-10-31 07:35:00,51.1,51.0,30.08,East,85,0.0,0.0,98,0.00,,,0.00,weatherlink.com 1.10,2013-10-31 11:35:00,
2013-10-31 07:50:00,51.3,51.0,30.07,East,83,0.0,1.0,98,0.00,,,0.00,weatherlink.com 1.10,2013-10-31 11:50:00,
2013-10-31 08:05:00,51.3,51.0,30.07,East,86,0.0,1.0,98,0.00,,,0.00,weatherlink.com 1.10,2013-10-31 12:05:00,
2013-10-31 08:20:00,51.8,52.0,30.06,East,86,0.0,1.0,99,0.00,,,0.00,weatherlink.com 1.10,2013-10-31 12:20:00,
2013-10-31 08:35:00,52.6,52.0,30.08,East,86,0.0,0.0,99,0.00,,,0.00,weatherlink.com 1.10,2013-10-31 12:35:00,
2013-10-31 08:50:00,54.3,54.0,30.07,East,86,0.0,1.0,99,0.00,,,0.00,weatherlink.com 1.10,2013-10-31 12:50:00,
2013-10-31 09:05:00,55.7,56.0,30.08,SW,236,0.0,1.0,99,0.00,,,0.00,weatherlink.com 1.10,2013-10-31 13:05:00,
2013-10-31 09:20:00,56.1,56.0,30.07,WSW,239,1.0,1.0,99,0.00,,,0.00,weatherlink.com 1.10,2013-10-31 13:20:00,
2013-10-31 09:35:00,55.9,56.0,30.07,West,276,0.0,2.0,99,0.00,,,0.00,weatherlink.com 1.10,2013-10-31 13:35:00,
2013-10-31 09:50:00,56.1,56.0,30.06,West,274,0.0,1.0,98,0.00,,,0.00,weatherlink.com 1.10,2013-10-31 13:50:00,
2013-10-31 10:05:00,57.0,57.0,30.05,SSE,153,1.0,3.0,99,0.00,,,0.00,weatherlink.com 1.10,2013-10-31 14:05:00,
2013-10-31 10:21:00,57.8,57.0,30.04,ESE,103,1.0,5.0,98,0.00,,,0.00,weatherlink.com 1.10,2013-10-31 14:21:00,
2013-10-31 10:36:00,58.4,57.0,30.03,SSE,155,1.0,6.0,96,0.00,,,0.00,weatherlink.com 1.10,2013-10-31 14:36:00,
2013-10-31 10:51:00,59.1,58.0,30.02,SE,146,0.0,2.0,96,0.00,,,0.00,weatherlink.com 1.10,2013-10-31 14:51:00,
2013-10-31 11:06:00,59.7,58.0,30.02,SSE,152,1.0,4.0,94,0.00,,,0.00,weatherlink.com 1.10,2013-10-31 15:06:00,
2013-10-31 11:21:00,61.1,59.0,30.02,East,85,0.0,5.0,93,0.00,,,0.00,weatherlink.com 1.10,2013-10-31 15:21:00,
2013-10-31 11:36:00,62.5,59.0,30.01,SE,136,2.0,5.0,89,0.00,,,0.00,weatherlink.com 1.10,2013-10-31 15:36:00,
2013-10-31 11:51:00,63.9,60.0,30.01,ESE,108,6.0,6.0,87,0.00,,,0.00,weatherlink.com 1.10,2013-10-31 15:51:00,
2013-10-31 12:06:00,64.2,60.0,30.00,South,188,0.0,9.0,85,0.00,,,0.00,weatherlink.com 1.10,2013-10-31 16:06:00,
2013-10-31 12:21:00,64.3,59.0,29.99,SE,146,1.0,7.0,84,0.00,,,0.00,weatherlink.com 1.10,2013-10-31 16:21:00,
2013-10-31 12:36:00,64.2,60.0,29.98,SE,141,1.0,7.0,85,0.00,,,0.00,weatherlink.com 1.10,2013-10-31 16:36:00,
2013-10-31 12:51:00,64.6,60.0,29.98,SE,131,3.0,5.0,84,0.00,,,0.00,weatherlink.com 1.10,2013-10-31 16:51:00,
2013-10-31 13:06:00,64.9,60.0,29.97,SE,134,4.0,6.0,84,0.00,,,0.00,weatherlink.com 1.10,2013-10-31 17:06:00,
2013-10-31 13:21:00,65.1,60.0,29.96,South,181,2.0,6.0,83,0.00,,,0.00,weatherlink.com 1.10,2013-10-31 17:21:00,
2013-10-31 13:36:00,65.6,60.0,29.95,SE,145,1.0,7.0,83,0.00,,,0.00,weatherlink.com 1.10,2013-10-31 17:36:00,
2013-10-31 13:52:00,65.9,60.0,29.94,SE,143,4.0,6.0,81,0.00,,,0.00,weatherlink.com 1.10,2013-10-31 17:52:00,
2013-10-31 14:06:00,66.1,60.0,29.93,South,186,4.0,6.0,80,0.00,,,0.00,weatherlink.com 1.10,2013-10-31 18:06:00,
2013-10-31 14:21:00,66.1,59.0,29.92,SSE,162,6.0,10.0,79,0.00,,,0.00,weatherlink.com 1.10,2013-10-31 18:21:00,
2013-10-31 14:36:00,66.0,59.0,29.91,SE,143,2.0,7.0,79,0.00,,,0.00,weatherlink.com 1.10,2013-10-31 18:36:00,
2013-10-31 14:51:00,66.1,60.0,29.90,South,181,1.0,10.0,80,0.00,,,0.00,weatherlink.com 1.10,2013-10-31 18:51:00,
2013-10-31 15:06:00,66.4,60.0,29.89,South,190,3.0,8.0,79,0.00,,,0.00,weatherlink.com 1.10,2013-10-31 19:06:00,
2013-10-31 15:22:00,66.7,60.0,29.89,South,187,1.0,7.0,78,0.00,,,0.00,weatherlink.com 1.10,2013-10-31 19:22:00,
2013-10-31 15:37:00,67.1,60.0,29.89,East,101,4.0,7.0,78,0.00,,,0.00,weatherlink.com 1.10,2013-10-31 19:37:00,
2013-10-31 15:52:00,67.3,60.0,29.89,South,181,6.0,9.0,77,0.00,,,0.00,weatherlink.com 1.10,2013-10-31 19:52:00,
2013-10-31 16:07:00,67.3,60.0,29.88,South,190,2.0,5.0,77,0.00,,,0.00,weatherlink.com 1.10,2013-10-31 20:07:00,
2013-10-31 16:22:00,67.4,60.0,29.88,SSW,198,3.0,6.0,77,0.00,,,0.00,weatherlink.com 1.10,2013-10-31 20:22:00,
2013-10-31 16:37:00,67.4,60.0,29.87,SE,146,2.0,5.0,78,0.00,,,0.00,weatherlink.com 1.10,2013-10-31 20:37:00,
2013-10-31 16:52:00,67.3,60.0,29.87,SSE,166,1.0,6.0,78,0.00,,,0.00,weatherlink.com 1.10,2013-10-31 20:52:00,
2013-10-31 17:07:00,67.2,60.0,29.86,SSE,166,0.0,6.0,78,0.00,,,0.00,weatherlink.com 1.10,2013-10-31 21:07:00,
2013-10-31 17:22:00,67.0,60.0,29.86,SE,146,1.0,5.0,79,0.00,,,0.00,weatherlink.com 1.10,2013-10-31 21:22:00,
2013-10-31 17:37:00,66.9,60.0,29.86,ESE,108,5.0,5.0,79,0.00,,,0.00,weatherlink.com 1.10,2013-10-31 21:37:00,
2013-10-31 17:52:00,66.7,60.0,29.85,ESE,109,2.0,4.0,79,0.00,,,0.00,weatherlink.com 1.10,2013-10-31 21:52:00,
2013-10-31 18:07:00,66.3,60.0,29.85,ENE,61,1.0,2.0,80,0.00,,,0.00,weatherlink.com 1.10,2013-10-31 22:07:00,
2013-10-31 18:22:00,66.3,60.0,29.85,SE,143,3.0,5.0,80,0.00,,,0.00,weatherlink.com 1.10,2013-10-31 22:22:00,
2013-10-31 18:37:00,65.3,60.0,29.86,ESE,115,0.0,5.0,84,0.00,,,0.00,weatherlink.com 1.10,2013-10-31 22:37:00,
2013-10-31 18:52:00,63.4,61.0,29.86,ESE,102,0.0,1.0,90,0.00,,,0.00,weatherlink.com 1.10,2013-10-31 22:52:00,
2013-10-31 19:07:00,62.3,60.0,29.86,East,96,2.0,2.0,92,0.00,,,0.00,weatherlink.com 1.10,2013-10-31 23:07:00,
2013-10-31 19:22:00,62.8,60.0,29.85,ENE,70,2.0,4.0,91,0.00,,,0.00,weatherlink.com 1.10,2013-10-31 23:22:00,
2013-10-31 19:37:00,62.4,60.0,29.84,East,99,0.0,2.0,91,0.00,,,0.00,weatherlink.com 1.10,2013-10-31 23:37:00,
2013-10-31 19:52:00,61.8,60.0,29.84,ENE,67,1.0,4.0,93,0.00,,,0.00,weatherlink.com 1.10,2013-10-31 23:52:00,
2013-10-31 20:07:00,62.9,60.0,29.84,SE,142,1.0,4.0,90,0.00,,,0.00,weatherlink.com 1.10,2013-11-01 00:07:00,
2013-10-31 20:22:00,63.6,60.0,29.83,ESE,114,1.0,3.0,87,0.00,,,0.00,weatherlink.com 1.10,2013-11-01 00:22:00,
2013-10-31 20:37:00,64.2,60.0,29.82,East,99,1.0,5.0,85,0.00,,,0.00,weatherlink.com 1.10,2013-11-01 00:37:00,
2013-10-31 20:52:00,64.5,60.0,29.82,East,82,2.0,8.0,84,0.00,,,0.00,weatherlink.com 1.10,2013-11-01 00:52:00,
2013-10-31 21:07:00,64.3,60.0,29.82,SE,134,1.0,4.0,85,0.00,,,0.00,weatherlink.com 1.10,2013-11-01 01:07:00,
2013-10-31 21:22:00,64.5,60.0,29.80,ESE,115,5.0,8.0,84,0.00,,,0.00,weatherlink.com 1.10,2013-11-01 01:22:00,
2013-10-31 21:37:00,64.7,59.0,29.79,SSE,155,1.0,10.0,83,0.00,,,0.00,weatherlink.com 1.10,2013-11-01 01:37:00,
2013-10-31 21:52:00,64.6,59.0,29.80,ESE,105,5.0,9.0,83,0.00,,,0.00,weatherlink.com 1.10,2013-11-01 01:52:00,
2013-10-31 22:07:00,64.5,59.0,29.79,SSE,153,2.0,8.0,83,0.00,,,0.00,weatherlink.com 1.10,2013-11-01 02:07:00,
2013-10-31 22:22:00,64.8,60.0,29.78,South,179,1.0,5.0,83,0.00,,,0.00,weatherlink.com 1.10,2013-11-01 02:22:00,
2013-10-31 22:37:00,65.0,59.0,29.77,South,184,1.0,13.0,82,0.00,,,0.00,weatherlink.com 1.10,2013-11-01 02:37:00,
2013-10-31 22:52:00,65.2,59.0,29.77,SE,129,5.0,9.0,81,0.00,,,0.00,weatherlink.com 1.10,2013-11-01 02:52:00,
2013-10-31 23:07:00,65.4,59.0,29.76,SE,134,4.0,21.0,81,0.00,,,0.00,weatherlink.com 1.10,2013-11-01 03:07:00,
2013-10-31 23:22:00,65.3,59.0,29.76,South,184,2.0,12.0,81,0.00,,,0.00,weatherlink.com 1.10,2013-11-01 03:22:00,
2013-10-31 23:37:00,65.3,59.0,29.73,SSE,158,3.0,11.0,80,0.00,,,0.00,weatherlink.com 1.10,2013-11-01 03:37:00,
2013-10-31 23:52:00,65.3,59.0,29.72,South,177,5.0,11.0,80,0.00,,,0.00,weatherlink.com 1.10,2013-11-01 03:52:00,